Home   Weather   Shemya Island   Past weeks
Flag for USA

Past Weather in Shemya Island, Alaska, USA — Yesterday and Last 2 Weeks

Now
38 °F

Overcast.


Feels Like: 23 °F
Forecast: 39 / 36 °F
Wind: 48 mph from Southwest

Location: Adak

Current Time: Mar 25, 2019 at 3:44:08 am

Latest Report: Mar 25, 2019 at 2:56 am


Visibility: 9 mi

Pressure: 28.90 "Hg

Humidity: 63%

Dew Point: 26 °F

Location of Shemya IslandLocation

Past Weather in Shemya Island — Graph

°F

Shemya Island Temperature Yesterday

Maximum temperature yesterday: 46 °F (at 6:19 pm)
Minimum temperature yesterday: 36 °F (at 4:42 am)
Average temperature yesterday: 40 °F

High & Low Weather Summary for the Past Weeks

 TemperatureHumidityPressure
High46 °F (Mar 24, 6:19 pm)100% (Mar 11, 4:33 am)29.83 "Hg (Mar 11, 4:33 am)
Low20 °F (Mar 17, 8:56 am)56% (Mar 22, 5:56 pm)28.69 "Hg (Mar 24, 10:56 pm)
Average34 °F79%29.56 "Hg
* Reported Mar 10 12:56 am — Mar 25 1:56 am, Shemya Island. Weather by CustomWeather, © 2019

Note: Actual official high and low records may vary slightly from our data, if they occured in-between our weather recording intervals... More about our weather records

Advertising

Shemya Island Weather History for the Previous 24 Hours

Scroll right to see more
 ConditionsComfort  
Time TempWeatherWind HumidityBarometerVisibility
1:56 am
Mon, Mar 25
38 °FOvercast.54 mph68%28.86 "Hg9 mi
12:56 am39 °FOvercast.52 mph70%28.79 "Hg7 mi
12:41 am37 °FLight rain. Overcast.59 mph75%28.78 "Hg5 mi
11:56 pm
Sun, Mar 24
39 °FLight rain. Mostly cloudy.53 mph76%28.74 "Hg4 mi
10:56 pm40 °FOvercast.50 mph70%28.69 "Hg6 mi
9:56 pm40 °FOvercast.45 mph70%28.70 "Hg4 mi
8:56 pm41 °FMostly cloudy.43 mph74%28.72 "Hg3 mi
7:56 pm44 °FOvercast.52 mph73%28.73 "Hg4 mi
6:56 pm46 °FOvercast.43 mph83%28.74 "Hg7 mi
6:19 pm46 °FLight rain. Fog.38 mph87%28.78 "Hg3 mi
5:56 pm45 °FRain. Fog.36 mph93%28.79 "Hg1 mi
5:42 pm45 °FLight rain. Fog.45 mph93%28.79 "Hg1 mi
5:38 pm45 °FRain. Fog.44 mph93%28.79 "Hg1 mi
4:56 pm44 °FLight rain. Fog.39 mph93%28.83 "Hg1 mi
4:33 pm45 °FLight rain. Fog.35 mph93%28.86 "Hg2 mi
3:56 pm44 °FLight rain. Fog.36 mph93%28.92 "Hg2 mi
2:56 pm43 °FLight rain. Fog.35 mph93%29.03 "Hg1 mi
2:21 pm45 °FLight rain. Fog.21 mph93%29.09 "Hg1 mi
2:05 pm45 °FLight rain. Fog.14 mph93%29.11 "Hg2 mi
1:56 pm44 °FLight rain. Fog.26 mph89%29.12 "Hg3 mi
1:28 pm41 °FLight rain. Fog.21 mph93%29.15 "Hg4 mi
1:18 pm41 °FLight rain. Fog.23 mph93%29.18 "Hg3 mi
1:07 pm39 °FLight rain. Fog.22 mph93%29.20 "Hg2 mi
1:00 pm41 °FLight rain. Fog.22 mph87%29.21 "Hg2 mi
12:14 pm39 °FMostly cloudy.10 mph87%29.27 "Hg10 mi
12:03 pm39 °FMore clouds than sun.12 mph87%29.28 "Hg9 mi
10:56 am38 °FMostly cloudy.18 mph73%29.37 "Hg10 mi
10:03 am37 °FMostly cloudy.16 mph75%29.43 "Hg10 mi
9:56 am38 °FMostly cloudy.15 mph76%29.44 "Hg10 mi
8:56 am37 °FScattered clouds.10 mph73%29.50 "Hg10 mi
7:56 am37 °FOvercast.6 mph76%29.52 "Hg10 mi
6:56 am37 °FOvercast.6 mph76%29.55 "Hg10 mi
5:56 am37 °FOvercast.8 mph76%29.57 "Hg10 mi
4:56 am36 °FOvercast.16 mph75%29.58 "Hg10 mi
4:42 am36 °FPassing clouds.17 mph75%29.59 "Hg10 mi
4:14 am37 °FOvercast.17 mph70%29.58 "Hg10 mi
3:56 am37 °FOvercast.22 mph67%29.60 "Hg10 mi
3:05 am37 °FOvercast.23 mph65%29.58 "Hg10 mi
Weather by CustomWeather, © 2019

See weather overview